When you browse on this site, cookies collect data to enhance your experience and personalize the content and advertising you see.
Visit our Privacy Policy to learn more. By continuing to use the site, you agree to this use of cookies and data.
  • In Austria
  • List of Countries
  • For 7 days
  • Water Temperature
  • Weather Map
  • News
  • Weather Widgets
  • user-avatar
    Login

    Hourly Weather Zakopane

    Today, 25 May, Monday

    Time Temperature Precipitation Wind Pressure Humidity
    00:00 +4°C° 0 mm 2 mps 688 mmHg 94%
    01:00 +4°C° 0 mm 2 mps 688 mmHg 95%
    02:00 +4°C° 0 mm 2 mps 688 mmHg 95%
    03:00 +5°C° 0 mm 1 mps 688 mmHg 95%
    04:00 +5°C° 0 mm 1 mps 688 mmHg 96%
    05:00 +5°C° 0.1 mm 1 mps 688 mmHg 94%
    06:00 +6°C° 0.1 mm 1 mps 688 mmHg 93%
    07:00 +7°C° 0.1 mm 1 mps 688 mmHg 91%
    08:00 +7°C° 0.7 mm 1 mps 688 mmHg 92%
    09:00 +7°C° 0.7 mm 1 mps 688 mmHg 92%
    10:00 +7°C° 0.7 mm 1 mps 688 mmHg 92%
    11:00 +7°C° 0.5 mm 1 mps 688 mmHg 90%
    12:00 +8°C° 0.5 mm 1 mps 688 mmHg 88%
    13:00 +9°C° 0.5 mm 1 mps 688 mmHg 86%
    14:00 +9°C° 0.3 mm 1 mps 687 mmHg 85%
    15:00 +8°C° 0.3 mm 2 mps 687 mmHg 84%
    16:00 +9°C° 0.3 mm 2 mps 687 mmHg 83%
    17:00 +8°C° 0.2 mm 2 mps 687 mmHg 87%
    18:00 +8°C° 0.2 mm 1 mps 687 mmHg 91%
    19:00 +7°C° 0.2 mm 1 mps 687 mmHg 95%
    20:00 +6°C° 0.1 mm 1 mps 687 mmHg 96%
    21:00 +6°C° 0.1 mm 1 mps 688 mmHg 96%
    22:00 +5°C° 0.1 mm 1 mps 688 mmHg 97%
    23:00 +5°C° 0 mm 1 mps 688 mmHg 97%

    Tomorrow, 26 May, Tuesday

    Time Temperature Precipitation Wind Pressure Humidity
    00:00 +5°C° 0 mm 1 mps 688 mmHg 97%
    01:00 +5°C° 0 mm 1 mps 688 mmHg 98%
    02:00 +5°C° 0 mm 1 mps 688 mmHg 98%
    03:00 +5°C° 0 mm 1 mps 688 mmHg 98%
    04:00 +6°C° 0 mm 1 mps 688 mmHg 98%
    05:00 +5°C° 0.1 mm 2 mps 689 mmHg 96%
    06:00 +6°C° 0.1 mm 2 mps 689 mmHg 94%
    07:00 +7°C° 0.1 mm 2 mps 690 mmHg 93%
    08:00 +7°C° 0.4 mm 2 mps 690 mmHg 91%
    09:00 +8°C° 0.4 mm 2 mps 690 mmHg 89%
    10:00 +8°C° 0.4 mm 3 mps 690 mmHg 88%
    11:00 +9°C° 0.4 mm 3 mps 690 mmHg 85%
    12:00 +10°C° 0.4 mm 3 mps 690 mmHg 83%
    13:00 +10°C° 0.4 mm 3 mps 690 mmHg 80%
    14:00 +10°C° 0.3 mm 3 mps 690 mmHg 80%
    15:00 +10°C° 0.3 mm 3 mps 690 mmHg 80%
    16:00 +10°C° 0.3 mm 3 mps 690 mmHg 80%
    17:00 +9°C° 0.3 mm 3 mps 690 mmHg 84%
    18:00 +9°C° 0.3 mm 3 mps 689 mmHg 89%
    19:00 +8°C° 0.3 mm 2 mps 689 mmHg 93%
    20:00 +7°C° 0.1 mm 2 mps 690 mmHg 94%
    21:00 +7°C° 0.1 mm 2 mps 690 mmHg 96%
    22:00 +6°C° 0.1 mm 2 mps 690 mmHg 97%
    23:00 +6°C° 0.1 mm 2 mps 690 mmHg 97%

    Day after tomorrow, 27 May, Wednesday

    Time Temperature Precipitation Wind Pressure Humidity
    00:00 +6°C° 0.1 mm 2 mps 690 mmHg 98%
    01:00 +6°C° 0.1 mm 2 mps 690 mmHg 98%
    02:00 +6°C° 0 mm 2 mps 690 mmHg 98%
    03:00 +6°C° 0 mm 2 mps 690 mmHg 98%
    04:00 +6°C° 0 mm 2 mps 690 mmHg 98%
    05:00 +7°C° 0 mm 2 mps 690 mmHg 96%
    06:00 +8°C° 0 mm 2 mps 691 mmHg 94%
    07:00 +8°C° 0 mm 2 mps 691 mmHg 92%
    08:00 +9°C° 0.2 mm 2 mps 691 mmHg 91%
    09:00 +9°C° 0.2 mm 2 mps 691 mmHg 89%
    10:00 +10°C° 0.2 mm 2 mps 691 mmHg 88%
    11:00 +12°C° 0.4 mm 2 mps 691 mmHg 83%
    12:00 +12°C° 0.4 mm 3 mps 691 mmHg 78%
    13:00 +13°C° 0.4 mm 3 mps 691 mmHg 73%
    14:00 +13°C° 0.6 mm 3 mps 690 mmHg 76%
    15:00 +12°C° 0.6 mm 3 mps 690 mmHg 78%
    16:00 +12°C° 0.6 mm 3 mps 690 mmHg 81%
    17:00 +12°C° 0.2 mm 2 mps 689 mmHg 85%
    18:00 +9°C° 0.2 mm 2 mps 689 mmHg 88%
    19:00 +9°C° 0.2 mm 1 mps 689 mmHg 92%
    20:00 +8°C° 0 mm 1 mps 689 mmHg 93%
    21:00 +7°C° 0 mm 1 mps 689 mmHg 94%
    22:00 +7°C° 0 mm 1 mps 688 mmHg 95%
    23:00 +6°C° 0 mm 1 mps 688 mmHg 95%

    28 May, Thursday

    Time Temperature Precipitation Wind Pressure Humidity
    00:00 +6°C° 0 mm 1 mps 688 mmHg 95%
    01:00 +6°C° 0 mm 1 mps 688 mmHg 95%
    02:00 +6°C° 0 mm 1 mps 687 mmHg 95%
    03:00 +6°C° 0 mm 1 mps 687 mmHg 95%
    04:00 +6°C° 0 mm 1 mps 687 mmHg 95%
    05:00 +8°C° 0.1 mm 1 mps 687 mmHg 92%
    06:00 +9°C° 0.1 mm 1 mps 687 mmHg 89%
    07:00 +9°C° 0.1 mm 2 mps 688 mmHg 86%
    08:00 +9°C° 0.5 mm 2 mps 688 mmHg 87%
    09:00 +9°C° 0.5 mm 2 mps 687 mmHg 88%
    10:00 +8°C° 0.5 mm 2 mps 687 mmHg 89%
    11:00 +9°C° 0.2 mm 2 mps 687 mmHg 86%
    12:00 +9°C° 0.2 mm 2 mps 687 mmHg 83%
    13:00 +9°C° 0.2 mm 3 mps 686 mmHg 80%
    14:00 +10°C° 0.1 mm 3 mps 686 mmHg 75%
    15:00 +10°C° 0.1 mm 3 mps 686 mmHg 70%
    16:00 +11°C° 0.1 mm 3 mps 686 mmHg 65%
    17:00 +9°C° 0 mm 3 mps 686 mmHg 71%
    18:00 +8°C° 0 mm 2 mps 685 mmHg 77%
    19:00 +7°C° 0 mm 2 mps 685 mmHg 83%
    20:00 +6°C° 0 mm 2 mps 685 mmHg 86%
    21:00 +5°C° 0 mm 2 mps 685 mmHg 89%
    22:00 +5°C° 0 mm 1 mps 685 mmHg 92%
    23:00 +5°C° 0.1 mm 1 mps 685 mmHg 93%

    29 May, Friday

    Time Temperature Precipitation Wind Pressure Humidity
    00:00 +5°C° 0.1 mm 1 mps 685 mmHg 95%
    01:00 +5°C° 0.1 mm 1 mps 685 mmHg 96%
    02:00 +5°C° 0.1 mm 1 mps 685 mmHg 96%
    03:00 +4°C° 0.1 mm 2 mps 685 mmHg 96%
    04:00 +4°C° 0.1 mm 2 mps 684 mmHg 96%
    05:00 +5°C° 0 mm 2 mps 684 mmHg 91%
    06:00 +5°C° 0 mm 2 mps 684 mmHg 86%
    07:00 +6°C° 0 mm 2 mps 685 mmHg 81%
    08:00 +7°C° 0 mm 2 mps 685 mmHg 71%
    09:00 +8°C° 0 mm 2 mps 685 mmHg 61%
    10:00 +9°C° 0 mm 2 mps 685 mmHg 51%
    11:00 +10°C° 0 mm 2 mps 685 mmHg 50%
    12:00 +12°C° 0 mm 2 mps 684 mmHg 48%
    13:00 +12°C° 0 mm 2 mps 684 mmHg 47%
    14:00 +12°C° 0.2 mm 2 mps 684 mmHg 52%
    15:00 +10°C° 0.2 mm 2 mps 684 mmHg 58%
    16:00 +11°C° 0.2 mm 1 mps 683 mmHg 63%
    17:00 +9°C° 0.1 mm 1 mps 683 mmHg 71%
    18:00 +8°C° 0.1 mm 1 mps 683 mmHg 78%
    19:00 +7°C° 0.1 mm 1 mps 682 mmHg 86%
    20:00 +5°C° 0 mm 0 mps 682 mmHg 88%
    21:00 +4°C° 0 mm 0 mps 683 mmHg 90%
    22:00 +3°C° 0 mm 0 mps 683 mmHg 92%
    23:00 +3°C° 0 mm 0 mps 682 mmHg 92%

    30 May, Saturday

    Time Temperature Precipitation Wind Pressure Humidity
    00:00 +2°C° 0 mm 0 mps 682 mmHg 92%
    01:00 +2°C° 0 mm 0 mps 682 mmHg 92%
    02:00 +2°C° 0 mm 0 mps 682 mmHg 92%
    03:00 +2°C° 0 mm 0 mps 682 mmHg 92%
    04:00 +2°C° 0 mm 0 mps 682 mmHg 92%
    05:00 +4°C° 0 mm 0 mps 683 mmHg 86%
    06:00 +6°C° 0 mm 0 mps 683 mmHg 81%
    07:00 +8°C° 0 mm 0 mps 684 mmHg 75%
    08:00 +9°C° 0.1 mm 0 mps 684 mmHg 72%
    09:00 +10°C° 0.1 mm 0 mps 684 mmHg 69%
    10:00 +12°C° 0.1 mm 0 mps 684 mmHg 66%
    11:00 +12°C° 0.4 mm 1 mps 684 mmHg 70%
    12:00 +12°C° 0.4 mm 1 mps 684 mmHg 73%
    13:00 +12°C° 0.4 mm 1 mps 684 mmHg 77%
    14:00 +12°C° 0.8 mm 1 mps 683 mmHg 80%
    15:00 +11°C° 0.8 mm 1 mps 683 mmHg 83%
    16:00 +11°C° 0.8 mm 1 mps 683 mmHg 87%
    17:00 +10°C° 0.6 mm 1 mps 683 mmHg 89%
    18:00 +9°C° 0.6 mm 1 mps 682 mmHg 92%
    19:00 +9°C° 0.6 mm 1 mps 682 mmHg 95%
    20:00 +8°C° 0.2 mm 1 mps 682 mmHg 95%
    21:00 +8°C° 0.2 mm 1 mps 682 mmHg 96%
    22:00 +7°C° 0.2 mm 1 mps 682 mmHg 96%
    23:00 +7°C° 0 mm 1 mps 682 mmHg 97%
    Show more